Wind_Speed
26 27 28 29 30 31 32 33 33 34 34 35 36 36 37 38 38 39 39 40 40 40 41 42 42 43 44 44 45 46 46 47 48 48 49 49 50 50 50 50 50 50 49
28 29 30 31 32 33 33 34 34 35 36 36 37 37 38 39 40 40 41 41 41 42 42 42 43 43 44 44 45 46 46 47 48 48 49 50 50 51 51 51 51 51 51
30 31 32 33 34 34 35 35 36 36 37 38 38 39 39 40 41 41 41 42 42 43 43 43 43 44 44 45 45 46 47 47 48 48 49 49 50 50 51 51 52 52 52
31 32 33 34 34 35 36 36 37 37 38 38 39 40 40 40 41 41 41 42 42 43 43 43 44 44 44 45 45 46 47 47 47 48 48 49 50 50 51 51 52 53 53
33 33 34 35 35 36 36 37 37 38 39 39 39 40 40 41 41 41 41 41 42 42 43 43 44 44 45 45 46 47 47 48 49 49 50 50 51 52 52 53 53 54 54
34 35 35 36 37 37 37 38 39 39 39 39 39 40 40 40 40 41 42 42 43 44 44 45 46 46 47 48 49 49 50 51 52 53 53 54 54 54 55 55 56 56 57
35 36 37 38 38 39 39 39 40 41 41 40 39 40 40 41 42 43 44 45 46 47 47 48 49 50 51 52 53 54 55 55 56 57 57 58 58 59 59 60 60 60 61
37 38 39 39 40 41 41 41 42 42 43 43 42 41 41 42 44 45 46 47 48 50 51 52 53 54 55 56 57 58 59 60 60 61 62 62 63 63 64 64 64 65 65
40 40 41 41 42 43 43 43 43 44 44 45 45 45 45 44 45 45 47 49 50 52 53 55 56 58 59 60 61 62 63 64 65 65 66 67 67 68 68 68 69 69 69
41 42 43 43 44 45 45 45 45 46 46 47 48 49 50 50 50 48 47 50 52 53 55 57 58 60 62 63 65 65 66 67 68 69 69 70 70 71 72 72 72 73 73
43 44 45 45 46 47 47 47 47 48 48 49 50 51 52 53 54 55 53 52 53 55 57 58 60 61 63 64 66 67 68 69 69 70 71 72 73 73 74 75 75 76 76
45 46 47 47 48 48 48 49 49 49 50 51 52 53 54 55 57 59 59 58 57 57 57 58 60 62 63 65 66 68 69 70 71 72 73 74 74 75 76 77 78 78 79
47 48 49 49 50 50 50 50 51 51 52 53 54 55 56 58 59 61 62 62 62 60 60 60 61 63 64 66 67 68 69 71 72 73 74 76 77 78 78 79 80 81 82
49 49 50 51 51 51 51 52 52 53 54 55 56 57 58 60 61 62 63 64 64 63 63 63 64 65 66 68 69 70 71 73 74 75 77 78 79 80 81 82 83 83 84
50 51 52 52 52 52 53 53 54 55 55 56 57 58 59 60 61 63 64 66 67 67 66 66 68 69 70 71 72 73 74 76 77 78 79 80 81 82 83 84 84 85 84
51 52 53 53 53 53 54 54 55 56 56 57 58 59 60 61 63 64 66 67 69 70 70 70 71 73 74 75 76 77 78 79 80 81 82 82 83 83 83 83 83 82 81
52 52 53 53 54 55 55 56 56 57 58 58 59 60 61 63 64 66 67 69 70 72 72 71 73 75 77 79 81 82 83 84 84 83 83 82 81 80 79 77 76 74 73
52 52 53 54 54 55 56 56 57 58 58 59 61 62 63 65 66 67 69 70 72 74 76 76 76 78 80 82 83 84 85 85 84 83 81 79 77 74 71 68 66 65 64
52 53 54 54 55 56 57 57 58 59 60 61 62 63 65 67 68 70 71 73 75 78 80 81 81 82 83 83 84 84 84 83 81 79 76 73 69 66 63 60 58 57 56
53 54 55 55 56 57 58 58 59 60 61 62 64 66 68 70 72 73 75 77 80 82 83 84 84 83 83 82 82 81 79 77 74 72 68 64 61 58 55 53 51 50 48
54 54 55 56 57 58 59 60 60 61 63 65 67 69 71 73 75 78 80 82 84 85 86 86 85 83 80 79 77 76 73 69 65 62 58 55 52 50 48 46 45 44 43
54 55 56 56 57 58 60 61 63 65 67 69 71 73 75 77 80 82 84 85 87 87 86 85 83 80 76 74 71 68 64 59 54 51 49 46 45 43 42 42 40 39 38
54 55 56 57 58 61 63 65 67 69 70 73 75 77 79 81 83 84 85 85 85 84 83 82 79 74 70 66 63 58 54 50 45 42 41 38 38 38 38 38 37 35 34
55 56 57 59 61 64 66 68 70 72 74 76 78 81 82 82 83 85 84 83 81 79 77 75 71 66 61 57 54 50 46 42 38 36 36 33 33 33 34 34 34 33 32
56 57 59 62 64 67 70 72 75 77 78 79 81 82 82 83 83 83 82 80 76 72 69 65 61 57 53 49 46 43 39 37 33 32 32 30 29 30 30 31 32 32 30
58 60 62 65 68 71 74 76 79 81 81 81 81 81 82 82 81 80 78 74 70 65 60 54 50 47 44 41 39 38 36 34 31 29 29 29 28 28 27 28 30 31 29
Wind_Direction
294 295 296 296 296 295 294 292 292 291 290 289 289 288 287 285 283 282 281 280 279 278 277 276 276 275 274 274 273 273 273 272 272 272 271 271 271 271 271 271 271 271 271
294 295 296 296 296 295 295 294 293 292 291 291 290 288 287 285 284 283 282 281 280 279 278 277 277 276 275 275 274 274 274 273 273 273 273 273 272 272 271 271 271 271 271
294 295 296 296 296 296 295 294 293 292 291 291 290 289 288 286 285 284 283 282 281 280 279 279 278 277 277 276 276 275 275 275 274 274 274 273 273 273 272 272 271 271 271
294 295 296 296 296 295 294 294 293 292 292 291 290 289 288 286 285 284 284 283 282 282 281 280 279 279 279 278 278 277 277 276 276 275 275 274 274 273 273 272 272 271 271
293 294 295 296 296 295 295 294 293 292 292 291 290 289 287 286 285 284 283 283 282 282 282 281 281 280 280 279 279 278 278 277 277 276 275 275 274 274 273 273 272 272 271
293 294 295 296 296 296 295 295 294 293 292 291 290 288 287 285 285 284 283 283 282 282 281 281 281 280 280 280 279 279 279 279 278 278 277 276 276 275 274 273 273 272 272
293 294 295 296 296 296 295 295 294 293 292 291 289 288 286 285 284 283 283 282 282 282 281 281 280 280 280 280 280 279 279 279 279 279 278 277 276 275 275 274 273 273 272
293 295 296 296 296 296 296 295 294 293 292 290 288 286 285 284 284 284 284 283 283 283 282 282 282 281 281 281 281 281 280 280 280 279 279 278 277 277 276 275 274 273 272
294 296 296 297 297 297 297 296 295 294 292 291 289 287 285 282 281 281 282 283 283 283 283 284 284 284 283 283 282 282 282 281 281 280 280 279 278 278 277 276 275 274 273
295 296 297 298 298 298 298 298 296 295 293 292 291 290 288 286 284 280 279 280 280 281 281 282 282 283 283 283 283 282 282 282 281 281 280 280 279 278 277 277 276 275 274
295 296 297 298 298 298 298 298 297 296 294 293 292 291 290 289 288 286 283 282 282 283 283 283 283 283 283 283 283 283 282 282 281 281 280 280 279 279 278 277 276 275 274
295 296 298 298 299 299 298 298 297 296 295 294 293 292 291 290 289 288 287 286 285 284 284 285 285 284 284 284 283 283 283 282 282 281 281 281 280 279 278 278 277 276 275
296 297 298 299 299 299 299 298 297 297 296 295 295 294 293 292 291 291 290 289 288 287 287 287 287 287 286 286 285 284 284 283 283 282 282 282 281 281 280 279 278 277 276
297 298 299 300 300 300 299 298 298 298 297 296 296 295 294 294 293 293 293 292 291 290 290 290 289 289 289 288 288 287 286 285 285 284 284 283 282 282 281 280 279 278 276
298 299 300 300 300 300 299 299 299 298 298 297 297 296 295 295 295 294 294 294 293 292 291 291 291 291 291 290 290 289 289 288 288 287 286 285 284 283 282 281 280 279 277
299 299 300 300 300 300 300 300 300 299 299 298 298 297 296 296 295 295 295 295 295 295 294 294 294 294 293 293 293 292 291 291 290 289 288 287 286 285 284 283 281 279 277
299 300 300 300 300 300 300 300 300 300 300 299 298 298 297 297 297 297 297 297 297 297 296 296 296 296 296 295 295 294 294 293 292 291 290 289 288 286 285 283 281 279 277
300 300 301 301 301 301 301 301 301 301 300 300 299 299 299 298 298 298 298 298 298 298 298 297 297 297 296 296 295 295 294 293 293 292 291 289 288 287 285 283 281 279 277
301 301 302 302 302 302 301 301 301 301 301 301 300 300 300 300 300 299 299 299 299 299 299 298 298 298 297 296 295 295 294 293 292 291 290 289 287 286 284 282 279 278 276
301 302 302 302 302 302 302 302 302 302 302 302 302 302 301 301 301 300 300 300 300 299 299 299 299 298 297 296 295 294 293 292 291 290 289 287 286 284 282 280 278 276 274
302 302 303 303 303 303 303 303 303 303 303 303 303 303 302 302 302 301 301 301 300 300 300 300 299 299 298 296 295 293 292 291 290 289 287 286 284 283 281 279 277 275 272
303 303 303 303 304 304 304 304 304 304 304 304 304 304 303 303 303 302 302 302 302 302 301 301 300 299 298 296 295 293 292 291 289 287 286 284 283 281 280 279 277 275 272
303 304 304 304 304 305 305 305 305 305 306 305 305 304 304 304 303 303 303 302 302 302 302 301 300 299 298 297 295 293 292 291 290 287 284 282 280 279 279 279 277 275 273
304 304 305 305 306 306 306 306 306 306 306 306 305 305 305 305 304 304 303 303 303 302 301 300 300 299 297 296 294 293 292 290 289 287 284 282 278 278 278 278 277 276 275
305 306 306 306 307 307 307 307 306 306 306 306 306 306 305 305 305 305 304 304 303 302 301 300 299 298 297 295 294 293 291 290 289 287 285 283 279 278 277 276 277 277 277
306 307 307 307 307 307 307 307 307 307 307 306 307 306 306 306 306 306 305 305 304 303 301 299 298 297 296 294 293 292 291 290 289 288 285 283 281 279 276 276 276 277 277
Height
5825 5823 5821 5819 5817 5815 5813 5812 5810 5808 5807 5805 5803 5802 5800 5798 5797 5795 5794 5793 5792 5791 5791 5790 5789 5788 5788 5787 5787 5786 5786 5786 5785 5785 5785 5785 5785 5785 5785 5785 5785 5785 5785
5819 5817 5815 5813 5811 5809 5807 5805 5803 5801 5799 5797 5796 5794 5792 5790 5788 5786 5785 5784 5783 5782 5781 5780 5779 5778 5778 5777 5776 5776 5775 5775 5774 5774 5773 5773 5773 5773 5773 5773 5773 5773 5773
5813 5811 5809 5807 5805 5802 5800 5798 5796 5793 5791 5789 5787 5785 5783 5781 5779 5777 5776 5774 5773 5772 5771 5770 5769 5768 5767 5766 5765 5765 5764 5763 5763 5762 5762 5761 5761 5761 5761 5761 5761 5761 5761
5807 5805 5803 5800 5798 5795 5793 5791 5788 5786 5784 5782 5779 5777 5774 5772 5770 5768 5766 5764 5763 5761 5760 5759 5758 5757 5756 5755 5754 5753 5752 5752 5751 5750 5750 5750 5749 5749 5748 5748 5748 5748 5748
5801 5799 5796 5793 5791 5788 5786 5783 5781 5779 5776 5774 5771 5768 5766 5763 5761 5759 5757 5755 5753 5752 5750 5748 5747 5746 5745 5743 5742 5741 5740 5739 5739 5738 5737 5737 5736 5736 5735 5735 5735 5735 5735
5794 5792 5789 5787 5784 5781 5778 5776 5773 5770 5768 5766 5763 5760 5757 5755 5752 5750 5748 5746 5744 5742 5740 5738 5736 5735 5733 5732 5730 5729 5728 5726 5725 5725 5724 5723 5723 5722 5722 5721 5721 5721 5721
5787 5785 5782 5779 5776 5773 5770 5767 5764 5762 5759 5757 5755 5752 5749 5746 5744 5741 5738 5736 5733 5731 5729 5727 5725 5723 5721 5719 5717 5716 5714 5713 5711 5710 5709 5708 5707 5707 5706 5706 5706 5706 5705
5780 5777 5774 5771 5768 5765 5762 5759 5756 5752 5749 5747 5745 5743 5741 5738 5734 5731 5728 5725 5722 5720 5717 5715 5712 5710 5707 5705 5703 5701 5699 5698 5696 5694 5693 5691 5690 5689 5689 5688 5688 5688 5688
5772 5769 5766 5763 5759 5756 5753 5749 5746 5743 5739 5736 5733 5732 5730 5729 5726 5724 5719 5715 5711 5708 5705 5702 5698 5695 5692 5690 5688 5685 5683 5681 5679 5677 5675 5673 5672 5671 5670 5669 5669 5669 5669
5764 5760 5757 5754 5750 5747 5743 5740 5736 5732 5729 5725 5722 5719 5716 5713 5712 5713 5711 5706 5701 5697 5693 5690 5686 5681 5677 5674 5671 5669 5666 5664 5661 5659 5657 5655 5653 5651 5650 5649 5648 5648 5648
5755 5752 5748 5744 5741 5737 5733 5729 5725 5721 5718 5714 5710 5707 5703 5699 5695 5694 5695 5693 5689 5685 5680 5676 5671 5667 5662 5658 5655 5651 5648 5645 5642 5640 5637 5635 5633 5631 5629 5628 5627 5626 5625
5746 5742 5738 5734 5730 5726 5722 5718 5714 5710 5706 5702 5698 5694 5690 5686 5682 5678 5676 5675 5673 5671 5666 5661 5655 5650 5646 5641 5638 5634 5630 5626 5623 5619 5617 5614 5611 5609 5607 5605 5604 5603 5602
5736 5732 5728 5724 5720 5715 5711 5707 5702 5698 5694 5689 5685 5680 5676 5671 5666 5662 5658 5655 5653 5652 5649 5645 5638 5632 5627 5623 5618 5614 5611 5606 5603 5599 5595 5592 5589 5586 5584 5581 5580 5578 5577
5726 5722 5717 5713 5708 5704 5699 5695 5690 5685 5681 5676 5671 5666 5661 5656 5651 5645 5641 5636 5634 5633 5630 5626 5620 5613 5608 5603 5597 5593 5589 5584 5580 5576 5572 5568 5565 5561 5558 5556 5553 5551 5550
5715 5711 5706 5702 5697 5692 5687 5682 5678 5673 5668 5662 5657 5652 5647 5641 5635 5630 5624 5619 5614 5611 5610 5606 5600 5594 5587 5581 5575 5570 5565 5561 5556 5551 5547 5543 5539 5535 5532 5528 5526 5523 5521
5705 5700 5695 5690 5685 5680 5675 5670 5665 5659 5654 5648 5643 5637 5632 5626 5620 5614 5608 5602 5596 5590 5588 5585 5578 5571 5564 5557 5551 5545 5540 5535 5530 5525 5520 5515 5511 5507 5503 5500 5497 5494 5492
5693 5688 5683 5678 5673 5668 5662 5657 5652 5646 5640 5634 5628 5623 5617 5610 5605 5598 5591 5585 5578 5571 5567 5566 5558 5550 5541 5533 5527 5519 5513 5508 5503 5497 5492 5487 5483 5479 5475 5472 5469 5466 5465
5681 5676 5671 5666 5660 5655 5649 5644 5638 5632 5626 5620 5614 5608 5601 5594 5588 5581 5574 5567 5559 5551 5545 5542 5538 5529 5520 5511 5503 5495 5488 5481 5476 5470 5465 5460 5456 5452 5449 5446 5444 5442 5441
5669 5664 5659 5653 5647 5642 5636 5630 5624 5618 5612 5605 5599 5592 5585 5578 5571 5563 5555 5548 5540 5531 5523 5517 5514 5506 5497 5487 5478 5471 5463 5457 5450 5444 5439 5435 5432 5429 5426 5424 5422 5421 5421
5657 5652 5646 5640 5634 5628 5622 5616 5610 5604 5597 5590 5583 5575 5567 5560 5552 5544 5536 5527 5518 5510 5501 5493 5487 5481 5473 5463 5453 5446 5441 5434 5428 5421 5417 5413 5411 5408 5406 5405 5404 5404 5403
5644 5639 5633 5626 5620 5614 5608 5601 5595 5589 5582 5575 5567 5558 5550 5541 5532 5522 5513 5505 5495 5486 5477 5468 5461 5455 5448 5439 5429 5422 5417 5413 5408 5401 5398 5394 5392 5391 5389 5388 5388 5388 5388
5632 5626 5619 5613 5606 5599 5593 5586 5579 5573 5565 5557 5549 5540 5531 5521 5511 5501 5491 5480 5470 5459 5450 5442 5435 5429 5423 5414 5406 5400 5395 5391 5390 5386 5381 5380 5376 5376 5374 5373 5373 5374 5375
5619 5613 5606 5599 5592 5585 5577 5570 5562 5555 5547 5538 5529 5520 5510 5500 5488 5478 5468 5458 5448 5435 5425 5416 5410 5405 5398 5392 5385 5381 5377 5374 5372 5370 5367 5367 5364 5363 5362 5361 5361 5361 5362
5606 5599 5592 5585 5578 5570 5561 5553 5545 5537 5529 5519 5508 5498 5487 5477 5465 5453 5444 5436 5426 5416 5405 5395 5388 5383 5378 5373 5367 5364 5361 5360 5359 5356 5354 5354 5353 5352 5351 5350 5349 5350 5351
5592 5585 5578 5570 5562 5554 5544 5535 5525 5517 5509 5499 5489 5477 5464 5454 5444 5431 5420 5411 5404 5396 5386 5378 5371 5366 5361 5356 5352 5350 5348 5347 5347 5346 5343 5343 5343 5342 5341 5341 5340 5340 5341
5578 5571 5563 5555 5546 5537 5527 5516 5505 5496 5488 5479 5469 5457 5444 5431 5420 5408 5397 5388 5381 5375 5369 5363 5357 5352 5348 5344 5341 5338 5337 5335 5335 5335 5334 5333 5332 5332 5333 5332 5330 5330 5331